Theta_e
286 286 286 286 285 285 285 285 284 284 283 283 283 282 282 282 282 281 280 281 281 280 280 280 280 280 279 279 278 278 277 277 277 277 276 276 276 275 275 275 275 274 274 274 275 275 274 274 274 274 274 273 274 274 274 273 274 274 274 273 273 273 272 271 270 270 272 275 275 275 274 274 273 274 273 274 274 274 276 275 275 274 275 275 275
285 286 286 286 285 285 285 284 284 283 283 282 282 282 282 281 281 280 280 280 280 280 280 280 279 279 278 278 278 277 277 277 277 276 276 275 275 275 275 275 274 274 274 273 274 274 274 273 273 273 273 272 273 272 272 272 272 272 272 273 272 272 273 271 270 269 268 272 272 273 273 274 272 273 273 273 273 274 274 274 275 274 274 274 274
286 286 285 285 285 285 285 283 283 283 282 282 282 282 281 281 280 280 280 280 280 280 280 279 279 278 278 278 277 277 277 276 276 276 275 275 274 274 274 274 274 273 273 273 273 273 272 272 272 272 272 271 272 272 272 271 272 271 271 272 271 271 272 272 270 268 268 269 271 271 272 272 272 272 273 273 274 274 273 273 274 275 275 275 274
285 285 285 285 285 284 284 283 282 282 282 282 282 282 281 281 280 280 280 280 279 279 279 279 278 278 277 277 276 276 276 276 275 275 275 275 274 274 274 274 273 273 273 272 272 272 271 271 271 271 271 270 270 271 271 271 271 271 271 271 271 271 271 271 270 269 269 268 269 270 271 271 272 273 273 274 273 273 274 274 274 274 274 275 274
284 284 284 284 284 284 283 283 282 282 282 282 282 281 281 280 279 279 279 279 279 278 278 278 277 277 277 276 276 275 275 275 275 274 274 274 274 274 273 273 273 272 272 272 273 271 271 270 270 270 270 270 270 270 270 270 271 271 271 271 270 271 271 271 270 270 269 268 269 271 272 272 272 273 273 272 273 274 274 273 274 274 274 275 275
284 284 284 283 283 283 283 283 282 282 282 282 282 281 281 280 279 279 279 278 278 278 277 277 277 276 276 275 275 275 275 275 274 274 274 274 273 273 273 272 272 271 271 271 271 271 270 270 270 271 270 270 270 270 271 270 271 270 270 270 271 271 270 270 271 270 270 270 270 270 271 271 271 272 273 273 273 273 273 274 274 274 274 274 275
283 283 283 283 283 283 283 283 283 282 282 282 282 281 280 279 279 279 278 278 277 277 277 276 276 276 275 275 275 274 274 274 274 273 273 272 272 272 271 271 271 270 270 270 271 271 271 271 270 271 270 270 270 270 270 270 270 270 270 270 271 270 271 271 271 271 270 270 270 270 270 272 272 271 273 274 274 273 272 272 273 275 275 274 274
283 283 283 283 283 283 283 283 283 282 282 282 281 281 280 279 279 279 278 277 277 277 276 276 275 275 275 274 274 274 273 273 273 272 272 271 271 271 270 270 270 270 270 271 271 271 271 271 271 271 271 271 271 271 271 270 271 270 271 272 272 271 271 271 271 271 270 270 270 270 271 271 272 274 274 274 273 273 274 273 272 273 274 275 275
283 283 282 282 283 283 283 283 282 281 281 281 280 280 279 279 278 278 277 277 277 277 276 276 275 274 274 273 273 273 273 272 272 272 271 271 270 270 270 270 270 269 270 270 271 271 271 271 271 271 272 273 274 274 273 273 272 271 272 273 272 272 272 272 271 271 271 271 271 272 271 271 272 272 272 272 272 272 274 275 273 274 275 274 275
282 282 282 282 283 283 282 282 281 281 281 280 280 279 278 278 278 277 277 277 276 276 275 275 274 274 273 272 272 272 272 272 274 276 275 271 270 270 269 269 270 270 270 270 270 271 271 272 272 274 275 275 276 276 277 278 278 277 275 275 275 274 273 273 272 272 272 271 270 271 270 271 272 272 272 273 275 275 274 274 273 274 274 273 274
282 282 282 283 283 282 281 281 281 280 280 280 279 278 278 277 277 276 276 276 275 274 274 274 273 273 272 272 271 271 272 272 277 278 278 276 271 269 269 269 270 270 270 270 271 272 272 273 273 274 275 276 276 277 277 278 278 278 278 278 278 275 274 273 273 274 273 272 273 273 272 272 273 274 274 274 275 274 274 274 273 273 272 271 270
282 282 282 282 282 282 281 281 280 280 279 279 278 278 277 276 276 276 275 274 274 273 273 273 273 272 272 272 271 271 271 275 279 280 279 278 274 270 270 270 270 270 271 271 272 273 273 274 274 274 274 273 273 273 274 276 277 277 277 278 278 279 279 276 274 273 274 273 273 273 273 273 273 274 274 274 274 274 274 274 273 272 272 271 271
282 282 282 281 281 281 281 280 279 279 279 278 277 276 276 275 275 274 274 274 273 272 273 273 272 272 272 271 271 271 270 276 280 280 280 279 277 273 271 271 271 271 272 272 273 273 274 274 273 273 273 275 274 274 273 273 275 276 277 277 278 278 278 279 280 277 276 274 273 273 274 274 273 273 274 274 275 273 274 273 273 273 273 272 272
281 281 281 281 281 280 280 280 279 279 278 277 276 275 275 275 275 275 274 273 273 273 273 272 272 271 271 271 271 271 270 276 280 281 281 280 278 275 271 272 272 273 273 273 274 274 274 273 272 271 272 273 273 273 272 272 273 273 274 274 274 276 277 278 278 278 277 275 274 272 274 274 273 274 275 276 275 273 273 273 274 273 273 273 274
281 281 281 280 280 279 279 279 278 278 277 277 275 275 274 275 274 274 274 273 273 272 272 271 271 271 270 271 270 270 270 277 281 282 282 281 279 276 272 273 273 273 274 274 274 274 274 273 272 272 272 272 273 273 272 273 273 274 274 274 274 274 275 275 275 275 275 275 275 274 275 276 276 276 277 277 276 276 276 275 275 275 275 276 275
280 280 279 279 279 279 278 278 278 277 276 275 275 275 274 274 274 274 273 273 273 272 272 271 270 270 270 270 269 269 270 278 281 282 282 282 282 275 273 273 273 273 274 274 274 274 273 272 272 271 271 271 274 276 276 275 274 273 273 273 274 274 275 277 278 279 278 277 277 276 276 277 279 277 278 278 278 278 277 276 275 274 272 271 270
279 279 279 279 279 279 278 278 277 276 275 274 274 274 274 274 274 273 272 272 272 271 271 271 270 269 269 269 269 269 269 277 281 281 282 282 281 275 274 273 273 273 273 273 273 273 272 272 272 271 271 272 274 276 277 277 274 273 273 273 273 273 274 276 278 279 279 279 279 280 280 280 281 281 281 281 278 276 273 270 269 270 268 267 268
279 279 279 279 279 278 278 277 277 276 275 274 274 275 275 275 274 273 272 271 271 270 270 269 269 269 269 269 269 269 269 276 281 281 281 282 279 274 274 273 272 272 272 272 272 271 272 274 273 272 272 273 275 276 277 275 273 273 273 272 272 273 273 274 274 274 277 277 278 278 278 278 278 278 277 276 276 275 270 268 269 270 268 268 267
276 277 278 277 277 277 277 277 277 276 275 275 275 275 274 274 273 272 272 271 270 270 269 269 268 269 269 269 272 270 269 275 281 281 281 281 278 274 273 272 271 271 271 271 272 271 271 273 275 275 274 274 276 276 277 276 274 273 274 273 272 271 272 273 271 271 271 272 273 272 271 271 270 269 269 274 275 274 271 270 270 269 267 268 268
277 276 276 275 274 276 276 277 277 276 275 275 275 275 274 273 271 271 271 270 270 269 269 269 268 268 269 269 270 270 270 273 277 280 280 281 280 274 273 272 270 271 271 270 270 271 271 272 274 276 276 276 276 276 276 277 275 275 274 272 271 270 272 270 271 272 272 270 268 268 267 267 268 268 268 269 270 270 271 271 270 270 269 269 269
278 277 276 274 274 275 275 276 276 275 274 274 274 274 273 272 271 270 270 269 269 268 268 267 267 267 268 269 269 269 269 271 275 280 280 281 280 276 272 272 271 271 270 270 270 270 271 272 272 274 275 275 275 275 276 276 277 275 274 272 271 271 274 272 272 272 268 266 265 265 265 265 266 267 268 268 269 269 270 271 271 271 270 269 268
276 276 277 276 275 275 275 275 275 274 273 273 273 272 272 271 270 270 269 269 268 267 267 267 266 267 267 268 268 268 269 272 272 278 280 280 280 278 272 272 272 271 270 269 271 271 272 272 271 272 274 274 274 275 276 276 276 274 272 274 275 275 273 272 268 265 264 263 263 263 263 264 264 265 267 267 268 269 270 271 271 271 271 271 269
275 275 276 276 275 276 275 275 274 272 272 272 272 271 270 269 269 269 269 268 268 267 267 266 266 266 265 266 267 267 268 270 274 275 279 280 280 279 276 274 276 272 271 270 271 272 272 271 271 273 273 274 275 276 276 275 274 272 274 274 275 275 273 266 264 263 262 262 262 262 262 263 264 265 266 267 268 269 270 270 270 271 271 271 271
276 276 275 275 275 275 274 274 274 272 272 272 271 270 269 269 268 268 268 268 267 267 267 266 266 265 264 265 266 267 269 269 273 276 277 279 280 280 278 277 277 273 272 272 272 272 271 270 270 273 273 274 274 274 274 273 272 272 273 273 273 272 266 263 261 261 261 261 261 262 262 264 265 265 266 267 268 269 269 269 270 270 270 271 271
276 276 276 275 275 274 274 273 272 272 272 272 271 270 269 268 268 268 268 268 267 267 266 266 266 265 265 265 265 266 268 269 271 274 277 278 279 279 279 278 277 277 273 272 272 271 272 273 273 274 274 272 272 272 270 269 270 271 272 272 270 263 261 260 260 260 260 261 262 262 263 264 265 266 267 268 268 268 268 268 269 270 270 270 271
276 276 276 275 275 274 273 273 272 272 271 272 271 270 269 268 268 268 268 268 267 267 266 265 265 265 265 265 266 266 267 268 270 272 275 277 277 278 278 278 277 277 274 272 273 273 273 274 273 271 270 269 267 266 265 265 269 270 270 268 262 260 260 259 260 260 260 262 262 262 263 264 265 267 267 268 267 266 267 267 267 267 268 268 268
278 277 276 275 274 273 273 272 271 271 271 271 271 270 269 269 268 268 267 267 267 267 266 265 265 266 265 266 266 267 267 268 269 270 272 273 274 275 276 275 276 276 273 271 272 269 270 269 268 270 268 269 268 268 267 266 263 262 261 260 260 260 260 259 260 261 262 262 262 262 263 265 266 266 265 265 265 266 267 267 267 267 267 267 267
278 278 276 275 273 273 273 271 270 270 270 270 270 270 269 269 269 268 267 267 267 267 266 265 266 266 266 266 266 266 266 267 268 269 270 270 271 272 272 271 271 270 268 268 267 267 265 266 264 261 260 259 259 257 257 257 259 259 259 258 259 260 262 265 266 263 262 262 262 263 263 263 263 263 264 265 265 266 267 267 267 266 267 267 265
277 277 276 274 273 272 272 272 271 271 270 270 270 270 269 269 269 269 270 270 270 269 268 267 267 268 268 267 266 265 266 266 267 271 270 272 270 270 269 269 269 268 270 270 264 262 261 257 255 256 256 256 256 254 254 255 256 257 257 257 257 258 259 258 258 259 260 261 261 262 262 262 263 263 264 264 265 266 268 267 267 267 267 267 265
276 276 275 273 273 271 271 271 270 270 269 269 269 269 270 272 271 269 269 272 273 273 272 268 269 269 268 269 269 267 266 267 272 274 274 274 274 274 273 272 272 270 271 273 265 258 256 254 255 254 255 255 254 255 255 254 255 256 256 260 259 257 258 259 259 260 261 261 261 262 262 262 262 263 264 264 265 266 267 268 266 267 265 265 264
276 276 274 272 272 271 270 270 270 269 269 268 268 267 267 270 273 273 272 272 273 274 274 273 273 273 270 268 270 271 271 273 274 275 275 275 275 275 274 274 274 273 273 266 260 257 255 254 255 254 255 254 253 254 255 255 255 255 256 256 257 258 259 259 259 260 261 261 261 262 262 263 263 264 264 264 265 266 266 267 266 266 265 264 263
277 277 275 273 272 270 270 270 269 268 268 268 267 267 266 266 268 273 274 273 274 274 275 274 275 274 274 271 270 270 273 275 276 276 276 276 276 276 275 275 275 274 272 269 258 255 254 253 253 253 253 253 255 255 255 254 255 255 255 255 256 257 258 258 260 260 260 260 260 261 262 263 263 264 264 265 265 265 266 265 265 265 264 264 264
276 277 276 273 271 269 269 268 268 268 267 267 266 266 266 266 266 267 270 274 275 275 276 275 276 275 274 274 274 273 274 275 276 276 276 276 276 276 276 276 275 274 271 261 257 256 253 253 252 253 253 253 253 253 254 254 254 255 255 255 256 257 258 259 261 260 260 260 261 262 262 263 263 264 264 265 265 265 265 265 265 264 264 263 263
277 276 276 274 271 270 269 268 267 267 267 267 266 266 266 267 267 267 267 268 271 274 276 276 276 275 275 275 275 276 276 277 277 277 277 276 276 276 275 272 273 271 266 257 257 255 254 252 253 252 253 253 252 253 253 254 254 255 255 255 256 257 258 259 259 259 259 260 261 262 263 263 263 263 263 264 265 266 265 265 264 263 263 263 263
277 274 272 272 272 270 269 268 267 267 267 266 266 266 267 267 268 268 268 268 268 269 270 272 275 276 273 275 276 277 277 277 277 277 276 276 275 276 274 266 262 258 257 255 255 254 254 253 252 253 252 252 252 252 253 253 253 253 254 254 255 256 257 257 258 258 259 260 261 261 262 262 263 264 264 264 265 265 264 264 264 264 263 263 263
277 276 275 272 271 270 269 268 268 267 267 266 266 266 267 268 268 268 269 269 269 269 269 270 271 275 276 276 277 277 278 277 277 276 275 275 275 273 262 259 257 256 255 254 253 253 253 252 252 252 251 251 252 252 252 252 253 253 253 254 255 255 255 256 257 258 260 261 261 261 262 262 263 264 265 265 265 265 264 264 264 264 264 263 263
276 276 275 273 271 270 269 268 268 267 268 267 267 267 267 268 268 269 269 269 269 269 269 269 270 271 273 273 275 277 277 276 276 275 275 275 274 265 261 259 258 256 254 253 252 252 252 252 251 250 250 251 251 251 252 252 252 253 255 255 255 255 255 256 258 260 260 260 260 260 261 262 263 264 265 265 265 265 264 264 264 264 264 264 264
276 276 275 274 271 270 268 267 267 268 267 267 267 267 267 268 268 269 268 268 268 268 268 269 270 269 269 270 274 273 273 275 275 274 273 271 261 258 258 257 256 256 254 253 252 252 251 250 249 249 250 250 250 251 251 251 252 252 253 253 254 254 259 259 260 258 258 259 259 261 262 263 264 265 265 265 265 264 263 263 263 263 263 263 263
275 275 275 274 272 269 268 267 267 267 266 267 267 267 267 267 268 268 268 268 267 267 268 268 268 268 268 270 271 272 271 266 262 259 257 256 256 256 256 255 254 253 253 252 252 252 250 250 250 249 250 249 250 250 250 251 251 252 253 253 254 254 255 255 256 257 258 259 260 261 262 263 264 265 266 265 264 264 263 263 263 263 262 262 263
274 274 274 274 271 269 267 266 266 266 266 266 266 267 267 267 267 267 267 267 267 267 267 267 266 267 268 269 268 267 263 261 259 256 255 254 253 253 255 254 253 253 253 252 251 250 249 249 249 249 249 248 249 249 249 250 251 251 252 253 253 254 255 256 256 257 258 259 260 261 262 263 264 265 266 265 264 264 263 263 263 263 263 263 263
274 273 270 273 271 269 267 266 266 266 266 266 266 266 266 267 267 266 266 266 266 266 266 265 266 265 265 266 270 268 262 259 257 256 255 253 253 252 253 253 253 252 252 251 250 249 248 248 248 248 248 248 248 249 249 249 250 251 251 253 254 254 255 256 257 257 258 259 260 262 263 264 265 265 265 265 266 265 263 263 263 263 263 263 263
273 272 270 270 269 267 266 265 266 265 266 265 266 266 266 266 265 265 265 265 264 264 264 264 263 262 266 271 270 268 260 257 256 255 254 254 253 253 253 252 251 251 250 250 249 248 247 248 248 248 248 248 248 249 249 249 249 250 251 253 253 254 255 256 257 257 258 259 261 262 263 264 265 266 266 267 263 262 262 262 263 263 263 263 263
272 271 269 268 268 266 265 265 265 265 265 265 265 264 265 265 265 264 264 264 264 263 262 261 260 262 266 270 268 265 257 256 255 254 254 253 253 252 252 251 250 249 249 248 248 247 247 247 248 248 248 248 248 248 248 249 249 249 251 252 253 254 255 256 257 258 259 260 262 263 263 264 265 266 265 264 263 263 262 262 262 263 263 263 263
270 268 267 267 266 266 265 265 265 265 265 264 264 264 264 264 264 264 263 263 262 261 261 260 260 263 265 266 262 257 255 255 254 254 253 253 252 252 250 247 247 246 246 246 246 245 246 246 247 247 247 247 248 247 248 249 249 249 250 252 253 255 255 256 257 258 259 260 261 262 263 264 266 266 264 264 263 262 262 262 262 262 263 263 263
267 266 265 265 264 264 264 264 264 264 263 263 263 263 262 263 263 262 262 261 260 260 259 259 260 262 260 258 257 256 255 254 253 253 253 252 252 251 249 247 247 246 246 246 245 245 244 246 246 245 246 247 247 247 248 249 249 250 250 252 252 254 255 256 257 259 260 261 262 263 264 266 266 265 264 263 263 262 262 262 262 263 262 262 262
265 265 264 263 263 263 263 263 262 262 262 262 262 261 261 261 261 260 260 259 259 258 258 259 259 258 257 257 255 254 253 253 253 252 251 251 251 249 247 247 246 246 245 246 245 244 245 245 245 245 246 247 247 247 248 249 249 250 251 252 253 254 255 256 258 259 261 262 262 263 266 266 266 265 264 263 263 262 262 262 262 263 262 262 262
264 263 263 263 262 262 261 261 261 261 261 261 261 260 260 259 259 258 258 258 258 258 258 258 257 256 255 254 254 253 252 252 252 251 251 251 249 247 246 245 245 245 245 245 244 244 244 245 245 245 246 246 247 247 248 249 249 250 251 252 253 254 255 257 259 260 262 263 265 266 266 266 265 264 264 263 262 262 262 262 262 262 262 263 262
263 262 262 261 261 260 260 260 260 259 260 259 259 259 258 258 257 257 257 257 257 257 257 256 255 255 254 253 253 252 252 252 251 251 250 249 248 247 246 245 246 245 244 244 243 243 243 243 244 244 245 246 247 247 248 248 249 250 251 252 253 254 256 258 260 261 263 264 266 267 266 265 265 265 264 263 262 262 262 261 262 262 262 262 263
261 261 260 260 259 259 259 259 259 259 258 258 257 257 257 257 256 256 256 256 256 256 256 255 254 253 253 252 251 251 251 250 250 250 249 248 247 246 244 245 246 245 244 244 244 243 243 243 244 245 245 245 246 246 247 248 249 250 251 252 253 257 259 261 261 263 265 266 267 267 266 265 265 264 264 263 262 262 262 262 262 262 262 262 262
259 259 259 259 258 258 259 259 258 258 257 257 257 256 256 255 255 255 254 255 255 255 254 253 253 252 251 250 250 250 251 250 250 249 249 247 246 245 244 244 244 243 243 242 243 243 242 241 242 243 244 245 246 246 247 248 249 250 251 252 255 258 260 262 264 265 266 268 268 266 265 265 265 264 264 263 262 262 262 262 262 262 262 262 262
258 258 258 258 257 257 257 257 257 257 257 257 256 256 255 254 254 255 254 254 254 253 253 253 252 251 251 251 251 251 250 250 249 249 248 248 246 245 245 243 244 243 242 242 242 243 242 242 243 244 245 246 246 247 247 248 249 250 252 255 259 262 264 265 265 266 268 268 268 266 265 265 264 264 263 263 262 262 262 262 262 262 262 262 262
Wind_Speed
13 15 13 15 14 15 16 15 15 13 12 12 13 12 11 12 12 11 9 12 12 12 12 12 12 12 12 13 14 14 13 12 10 10 9 9 8 8 8 8 8 6 7 6 5 5 5 4 4 3 3 3 3 3 3 3 3 4 3 4 5 4 4 6 11 17 12 4 8 1 1 5 9 6 12 7 10 11 10 11 12 11 11 11 11
15 17 15 15 15 15 14 12 12 11 13 12 13 12 12 12 12 10 14 12 13 14 14 12 11 12 11 11 12 12 12 12 11 10 10 10 9 7 8 8 8 7 7 7 6 5 5 5 4 5 4 4 3 4 3 3 3 3 4 5 5 5 4 5 9 10 20 7 8 8 3 2 11 3 11 14 9 11 14 11 10 11 11 10 10
16 13 12 13 16 16 13 11 12 13 14 12 13 13 12 11 11 14 13 12 12 13 14 13 13 12 11 11 10 10 11 11 10 10 10 11 11 9 9 9 9 9 9 8 7 6 6 5 5 4 4 4 4 4 3 3 3 4 6 5 5 5 5 5 7 11 12 17 7 14 7 4 7 12 8 10 13 11 13 13 10 9 9 11 11
13 13 14 15 14 11 13 12 13 13 15 14 15 13 12 12 12 13 12 11 13 11 12 13 12 13 12 11 11 10 10 9 10 10 11 11 11 11 10 9 8 8 8 8 8 7 7 6 5 5 4 5 4 4 4 4 4 5 6 6 6 6 5 6 7 8 12 15 15 6 14 9 8 7 10 11 11 14 10 11 11 11 11 10 11
11 13 14 15 14 14 14 13 15 16 17 14 16 15 14 13 12 14 12 12 13 12 11 12 13 13 13 13 12 11 11 11 11 11 10 10 10 10 10 9 8 8 8 8 8 8 7 7 6 5 5 5 5 5 5 6 6 6 6 6 6 5 5 6 7 7 10 14 17 11 8 13 8 8 8 10 12 12 12 13 11 11 13 12 10
13 13 13 14 15 16 16 15 17 18 18 16 16 16 14 14 14 12 14 14 13 12 14 12 13 14 12 12 12 12 11 11 12 12 11 10 9 8 8 9 8 8 8 7 7 7 7 6 6 6 6 7 6 6 6 7 7 6 7 6 6 6 6 7 7 8 10 13 13 19 11 9 15 8 4 12 11 11 16 15 13 11 12 14 11
13 14 14 15 14 15 15 17 18 17 16 16 13 13 13 13 14 15 13 15 15 14 13 14 12 13 13 12 12 12 12 11 11 10 10 10 10 10 9 9 8 7 6 7 6 6 6 6 6 7 7 7 7 7 6 6 6 7 7 6 6 6 7 7 7 9 10 11 13 12 16 14 10 19 14 5 13 10 12 18 21 10 9 13 16
14 15 14 15 15 16 16 17 15 14 12 11 11 12 12 12 13 12 12 14 15 15 16 15 12 11 12 12 12 11 11 11 10 10 10 10 10 9 9 9 9 7 7 7 7 7 7 7 7 8 8 8 7 6 6 6 5 6 7 7 7 8 8 7 8 9 10 10 10 10 10 12 14 10 13 13 14 13 10 11 19 23 18 13 12
14 14 15 16 17 17 15 13 11 11 12 13 12 13 14 13 12 12 13 13 12 13 13 14 13 12 11 11 11 10 11 11 10 11 12 11 10 10 10 10 9 9 8 8 8 8 7 7 8 8 9 10 13 11 9 9 6 6 7 8 7 7 8 8 8 9 10 11 13 13 13 13 13 15 16 13 18 17 14 14 18 16 17 20 19
15 15 16 18 17 15 14 12 13 13 14 15 15 14 14 13 13 13 14 14 13 12 13 13 14 14 14 12 11 11 10 9 12 20 15 12 11 9 8 8 9 9 9 8 8 8 8 7 7 12 12 13 13 14 13 13 14 10 6 6 6 6 7 8 9 9 10 10 9 10 11 13 13 14 17 16 14 17 20 15 18 20 14 21 20
13 14 17 17 14 12 12 13 13 15 16 15 13 14 14 13 13 13 13 13 14 13 13 14 13 13 14 14 14 12 10 10 20 21 21 19 12 10 10 9 9 9 9 9 8 8 8 8 7 9 10 11 10 13 13 13 13 14 15 16 13 9 8 9 9 9 10 11 12 12 12 15 14 16 15 21 16 21 17 19 16 18 17 16 22
13 15 17 13 12 13 13 13 13 13 12 14 14 14 13 13 14 14 13 14 13 12 14 15 14 13 12 12 13 12 11 15 23 23 22 22 17 11 10 10 9 9 9 9 8 8 8 7 7 6 6 6 6 7 10 12 13 14 15 15 16 19 19 13 11 9 9 10 11 11 12 16 20 15 16 14 18 19 18 19 22 16 21 19 17
14 14 13 11 13 12 11 12 12 12 13 13 12 12 14 14 14 14 16 14 12 14 15 14 14 13 13 15 14 12 11 19 24 25 24 24 23 16 10 9 9 9 9 10 9 9 8 8 8 6 5 11 9 6 6 7 11 15 15 16 17 19 20 22 22 16 11 12 14 14 13 12 19 17 14 17 19 17 22 19 17 19 15 20 22
13 14 11 10 11 11 11 11 13 13 12 12 12 14 14 16 15 14 12 12 14 14 13 15 13 14 14 15 13 12 13 20 26 25 24 25 24 17 9 11 10 10 11 10 9 10 10 9 8 6 6 8 7 8 7 7 7 7 9 10 10 12 16 19 21 23 20 15 14 17 17 16 16 18 22 18 18 18 16 20 20 16 20 18 23
12 12 12 12 11 11 12 13 13 13 13 13 13 14 15 13 14 14 14 15 16 16 16 15 14 13 12 12 11 12 11 21 24 24 24 25 24 17 10 10 9 9 10 10 10 10 11 9 7 6 6 6 6 7 6 6 7 7 7 7 9 11 11 12 12 12 13 14 16 17 20 15 18 18 16 14 17 16 18 19 19 19 19 19 17
10 7 9 10 12 13 14 14 13 12 13 13 14 15 15 16 16 13 12 11 10 9 9 10 12 13 12 11 10 10 10 21 23 25 25 25 26 12 10 10 9 9 9 10 11 10 9 7 7 5 5 5 8 13 10 7 6 6 8 9 8 9 11 14 19 19 16 14 14 15 15 18 23 21 20 18 16 15 15 16 14 14 15 18 18
9 10 11 12 12 12 12 13 12 13 13 14 15 15 15 14 13 11 12 12 12 12 12 12 10 11 12 12 12 10 10 19 25 25 24 25 19 9 10 9 9 8 10 11 9 7 6 6 6 5 5 6 9 12 11 11 6 7 8 9 10 11 10 9 15 20 23 24 26 27 29 31 30 30 30 32 25 22 16 17 16 13 14 15 16
7 7 11 9 9 9 9 10 12 13 13 16 16 14 12 10 12 11 14 13 13 12 10 9 9 10 13 13 12 12 11 16 25 24 24 26 16 10 10 9 8 7 6 5 3 3 5 11 8 7 7 8 10 11 11 9 7 7 9 12 11 8 8 10 10 10 19 25 27 28 27 24 26 31 32 30 30 23 13 16 15 12 16 16 18
4 4 4 2 4 5 7 9 11 12 14 14 12 13 13 13 10 9 9 9 9 8 9 9 9 9 9 10 13 12 10 14 25 23 25 25 16 8 9 8 8 7 7 6 6 4 6 8 12 11 9 8 11 12 13 10 6 8 9 8 9 10 10 11 10 12 11 11 10 9 11 16 15 13 16 28 28 24 17 16 13 13 16 16 15
4 3 2 3 4 5 6 8 9 10 12 10 10 10 9 9 11 11 9 9 9 9 9 9 11 9 9 10 11 9 10 10 16 24 23 24 20 10 7 9 9 9 8 7 6 6 6 6 8 12 11 11 11 11 11 12 9 7 7 6 6 9 7 8 12 12 11 7 8 10 12 13 13 12 13 14 15 15 17 16 15 14 14 15 15
3 3 3 3 5 6 5 7 9 7 7 8 8 8 9 10 10 11 11 9 9 10 11 9 9 8 8 8 8 10 10 10 14 24 23 23 22 16 8 9 8 8 7 7 6 5 5 5 4 8 11 11 10 11 11 13 13 8 7 5 6 10 13 9 8 11 8 10 11 11 11 10 10 10 11 11 11 13 14 16 15 15 13 13 14
3 3 4 4 4 4 6 5 6 7 7 9 9 8 6 7 9 10 9 10 12 12 11 10 10 9 8 8 8 7 9 14 11 21 23 23 22 21 10 8 8 7 7 6 6 7 6 6 4 7 10 10 10 11 12 12 14 8 7 14 18 18 13 7 5 6 8 8 10 10 9 10 9 9 9 10 10 12 13 13 13 14 15 15 15
3 4 4 5 6 6 5 6 6 5 7 9 10 10 9 10 10 10 10 10 11 12 11 10 10 9 9 8 7 8 10 11 18 13 22 23 24 20 18 13 17 9 7 7 7 7 6 5 4 9 10 10 10 11 11 12 10 8 13 15 16 18 14 5 7 7 8 8 9 10 10 9 9 10 10 10 11 12 12 13 15 16 16 16 18
2 3 4 5 5 7 8 8 7 7 8 8 8 9 9 10 10 10 11 11 11 11 10 10 9 8 9 7 7 7 8 8 16 19 17 24 23 23 21 20 19 10 8 6 6 5 4 5 4 10 10 10 9 8 9 9 7 11 13 14 16 13 6 7 6 7 8 9 9 9 9 9 9 9 9 10 11 12 14 15 15 15 17 18 20
4 5 5 5 6 6 6 8 9 10 10 12 12 10 10 11 11 9 11 11 11 12 12 12 12 9 6 8 8 8 7 9 8 15 21 22 23 23 22 21 19 18 9 6 6 5 6 9 10 11 7 5 5 6 6 8 11 11 12 14 12 4 5 6 7 7 8 9 9 10 10 10 10 13 14 14 15 14 13 13 13 15 15 17 18
7 9 7 7 9 8 9 8 8 10 12 11 13 12 14 13 12 11 11 11 11 12 12 12 12 13 11 6 8 8 9 7 9 11 13 17 17 22 22 21 19 17 12 9 11 10 11 10 5 0 2 2 2 2 3 4 9 12 13 12 5 5 5 6 7 7 9 10 10 11 11 11 12 13 14 13 12 13 12 13 14 13 10 11 13
10 9 9 8 7 9 11 10 10 10 11 10 10 11 11 12 12 12 13 13 13 12 12 12 12 12 11 10 7 8 8 7 8 10 9 9 9 12 13 12 16 15 8 6 6 3 4 4 2 1 1 4 4 5 5 7 6 6 5 4 5 5 6 5 7 8 9 9 11 11 11 12 12 11 11 10 12 11 12 13 13 13 12 13 15
11 11 11 9 8 9 10 11 12 10 12 13 12 12 12 13 14 16 17 17 16 15 14 15 16 16 9 8 8 7 8 9 9 10 10 8 8 7 6 6 6 5 7 6 6 4 5 5 5 4 2 3 2 2 2 2 4 5 5 5 6 7 9 12 12 8 9 9 10 11 11 11 10 11 11 12 12 12 10 12 11 15 13 12 15
12 12 10 8 10 9 9 9 10 10 10 11 11 12 15 16 17 14 13 11 14 17 17 15 14 13 14 16 15 10 6 11 11 11 11 13 11 9 8 7 6 5 8 10 7 6 5 4 2 2 1 1 2 2 3 3 4 4 5 6 6 5 4 4 6 7 7 8 10 11 12 12 12 11 11 12 12 11 12 11 13 12 13 10 14
11 12 9 9 9 8 9 9 10 10 9 10 10 8 7 11 8 9 9 12 13 10 10 11 12 13 13 12 13 17 17 14 19 25 21 20 19 17 14 13 11 9 10 15 9 6 4 4 1 1 1 1 2 3 4 3 4 6 5 6 6 5 6 6 6 7 8 8 9 10 12 12 12 11 11 12 12 12 11 13 13 12 14 14 15
11 11 9 9 10 10 10 10 10 9 9 9 9 9 6 7 13 12 9 13 14 15 15 16 17 16 11 11 9 7 12 19 25 24 24 23 21 20 19 17 18 17 15 12 5 6 5 4 3 2 3 3 3 4 3 4 5 5 6 6 5 6 7 6 7 7 8 9 10 10 11 12 13 12 12 14 13 14 13 10 11 13 14 14 16
12 12 10 10 10 9 8 9 9 9 9 9 9 9 9 8 8 14 16 16 17 18 19 20 22 21 18 15 13 10 19 25 26 26 25 24 22 22 20 20 19 18 18 13 7 5 5 5 4 5 3 3 4 4 3 4 5 5 5 6 7 5 6 7 7 7 8 9 10 11 11 11 11 12 13 14 14 15 12 14 12 13 13 12 14
14 14 11 9 9 10 9 9 10 10 10 11 11 11 11 11 11 9 11 17 18 19 20 21 24 23 22 22 21 20 24 26 28 27 25 24 23 22 21 21 20 19 16 8 7 7 5 5 5 4 4 5 4 3 4 4 5 5 5 5 7 7 7 8 10 9 9 10 11 11 11 11 12 13 13 14 13 14 14 14 13 13 13 15 15
15 13 12 11 10 10 11 10 10 11 11 11 11 11 12 11 11 11 11 11 12 14 17 22 25 25 25 25 25 26 27 27 27 26 25 24 24 23 20 15 18 17 12 8 7 7 6 5 5 5 4 4 3 3 4 5 4 5 5 6 6 7 8 8 8 9 9 10 10 11 11 11 12 12 13 13 13 12 12 14 13 14 15 14 15
14 15 19 14 10 11 10 10 11 10 10 11 11 12 12 11 12 13 14 15 14 13 13 15 22 26 21 21 25 29 28 28 27 26 27 25 25 25 21 12 9 6 6 5 6 7 7 6 6 4 3 4 4 4 5 5 5 5 5 6 6 7 7 7 8 9 10 10 10 10 11 12 12 12 13 13 14 14 14 15 14 13 15 16 15
14 12 11 13 11 10 10 10 11 11 11 11 10 10 9 10 11 11 11 11 12 12 11 11 12 20 30 26 29 28 29 28 27 26 26 26 26 24 12 9 8 7 7 6 6 6 5 5 4 4 4 4 4 4 5 5 5 5 5 5 7 7 7 8 9 10 10 10 10 13 13 12 12 12 13 13 14 13 14 15 15 14 15 14 14
12 12 11 10 10 10 10 10 10 11 10 9 10 10 10 10 10 10 10 11 12 12 13 13 14 15 18 14 23 27 29 27 26 25 24 25 25 14 9 9 9 8 7 7 6 5 6 5 5 3 4 4 4 5 5 5 5 5 6 6 6 8 8 8 9 10 10 11 11 11 12 12 12 12 13 14 14 12 13 13 15 16 17 18 21
14 13 11 10 10 10 9 10 10 12 11 11 10 11 11 11 11 11 11 12 13 13 14 14 14 15 16 14 20 14 19 24 26 20 18 15 10 8 7 7 8 9 8 6 6 6 6 5 4 4 4 4 5 5 5 5 5 5 5 6 7 7 14 13 13 12 11 11 11 11 11 11 12 13 13 13 13 12 15 15 15 16 17 16 13
13 17 19 15 12 10 10 10 11 12 11 11 11 12 12 12 12 12 11 12 13 13 12 13 13 13 13 13 13 15 19 12 11 9 8 7 6 7 7 7 7 6 6 7 6 6 5 4 5 4 4 4 5 5 5 6 5 5 5 6 7 8 9 8 10 10 10 10 11 11 12 12 12 13 13 12 12 14 15 16 16 16 16 15 14
12 10 11 15 9 10 9 10 11 12 12 13 12 12 12 12 13 13 12 13 13 13 13 13 12 12 11 13 14 13 13 12 11 9 9 10 9 7 7 8 7 7 7 6 6 5 5 4 4 4 4 4 5 5 4 5 5 5 5 6 6 8 9 9 10 10 11 11 11 12 12 13 13 13 12 11 12 13 15 17 16 15 15 15 16
9 9 7 10 12 10 9 10 11 12 11 12 12 12 13 12 12 11 12 13 12 12 12 11 11 10 9 13 22 19 14 12 11 10 9 12 12 10 7 6 7 6 6 6 6 5 5 4 4 4 4 4 4 5 5 4 5 5 5 6 6 8 9 10 10 10 11 12 12 13 12 12 13 13 12 12 16 17 15 15 15 15 15 15 15
14 10 8 8 11 10 10 11 10 11 11 11 12 12 11 11 12 12 12 12 11 12 12 11 10 9 13 27 24 22 12 9 9 9 8 8 8 7 6 6 5 6 6 6 6 6 4 3 3 3 4 4 4 4 4 5 5 5 5 6 7 8 9 9 10 11 12 12 13 13 14 15 15 13 13 15 13 12 14 15 16 16 15 15 14
13 10 9 9 11 11 12 11 11 12 12 12 11 10 11 13 13 13 13 13 13 13 12 11 9 9 13 21 20 19 10 8 6 9 8 8 7 7 7 6 5 5 4 4 4 4 4 3 3 3 4 5 5 5 5 6 4 5 6 7 8 9 9 10 10 11 11 12 13 15 16 14 13 11 13 13 14 14 14 16 14 14 13 14 14
10 8 8 9 9 9 8 10 10 10 10 11 11 10 11 11 12 13 13 12 12 11 11 12 11 11 11 14 13 10 9 8 8 8 8 8 7 7 7 8 7 6 5 4 4 4 4 3 3 4 4 5 5 5 6 6 5 5 6 7 8 9 10 10 11 12 12 13 13 13 13 13 12 12 13 14 14 16 16 16 17 16 16 16 16
7 7 8 8 8 9 8 8 9 9 10 10 10 10 10 11 12 11 11 11 10 10 10 10 10 10 7 9 10 9 9 8 7 7 7 8 7 6 6 7 6 5 4 3 2 3 3 4 4 4 5 5 5 5 6 5 5 6 6 7 8 9 9 11 11 12 13 14 13 13 13 11 12 13 13 14 14 14 15 16 16 17 18 17 16
6 7 8 9 9 8 9 9 9 11 11 11 12 11 10 10 10 10 9 10 10 11 10 10 9 7 7 9 8 8 9 8 7 7 7 7 6 6 7 5 4 3 3 2 2 2 3 4 4 4 5 5 5 5 6 6 6 6 7 7 9 10 10 11 12 12 13 14 13 13 12 11 12 12 15 15 14 14 15 16 16 15 16 17 17
6 7 8 8 9 9 8 9 10 10 10 10 10 10 10 9 10 10 9 11 11 10 10 10 9 8 8 9 9 8 7 8 8 8 7 6 6 6 6 4 3 2 2 2 2 3 3 4 4 4 5 5 5 7 7 6 6 6 6 7 8 10 10 10 11 12 13 13 13 12 11 12 13 13 15 15 14 15 16 16 16 18 17 16 16
7 7 7 8 9 10 10 10 11 10 10 10 10 9 10 10 9 9 9 10 11 10 10 9 8 8 8 8 8 7 7 7 6 6 6 6 5 5 4 4 3 3 2 2 2 2 2 3 3 4 5 5 6 7 7 7 7 7 8 7 8 9 13 16 13 13 12 13 14 12 11 12 12 13 13 15 15 15 16 16 16 15 16 16 17
7 8 8 8 8 9 10 10 10 10 10 10 10 11 10 10 10 10 10 10 9 10 9 10 9 9 9 9 9 8 7 6 7 6 5 5 5 4 4 3 3 2 2 1 1 1 2 3 3 4 5 6 6 7 7 7 8 8 9 8 11 19 21 23 17 12 19 16 11 10 11 12 13 13 14 15 16 15 15 16 16 17 17 17 17
8 8 8 8 9 8 7 8 8 9 8 9 10 10 10 11 10 11 12 10 9 9 8 11 11 10 11 11 9 9 8 7 6 6 5 5 4 3 3 3 2 1 1 1 1 2 2 2 4 5 5 6 6 7 7 7 8 9 9 10 17 22 23 24 24 25 20 12 11 9 11 12 13 12 12 14 15 17 17 17 18 17 17 18 18
9 9 8 8 8 8 9 9 9 9 9 10 10 11 11 10 8 7 7 8 9 9 6 7 7 7 8 8 7 7 7 6 6 5 5 5 4 4 3 2 1 0 0 1 2 3 3 4 4 5 5 6 6 7 6 7 8 9 13 19 22 23 23 22 16 20 26 17 10 10 11 12 13 13 12 13 14 16 17 18 18 17 17 16 17
Wind_Direction
205 212 204 209 205 204 204 201 202 198 194 193 194 194 188 187 187 185 161 184 174 178 182 184 183 180 177 176 174 174 172 172 172 166 166 163 164 162 164 162 156 156 150 155 155 156 163 171 179 181 164 183 204 209 225 220 232 245 237 246 255 251 256 262 271 282 286 191 279 185 340 339 301 301 296 294 294 289 272 280 281 279 280 285 290
209 211 205 207 205 209 206 201 198 193 197 194 197 194 190 186 182 169 184 182 176 179 180 178 179 179 180 182 180 177 175 171 167 165 163 162 162 164 168 164 162 156 154 160 158 161 165 171 182 170 175 187 198 210 210 215 222 236 248 246 249 260 242 269 268 280 291 285 295 292 264 285 290 289 294 302 283 284 289 280 275 278 285 286 287
211 208 206 207 209 208 201 195 191 195 195 197 199 195 191 184 177 182 183 180 181 180 178 174 175 175 178 181 182 181 176 170 168 166 167 166 167 169 172 170 165 161 162 165 162 159 164 175 186 172 177 188 204 205 199 215 220 235 250 252 257 258 260 259 279 284 287 293 306 298 302 297 288 301 288 283 288 283 285 290 286 283 277 277 278
206 202 205 209 210 203 202 197 191 194 198 199 199 194 186 185 180 183 182 176 178 181 174 173 171 175 176 177 181 180 175 173 169 172 170 170 171 171 170 169 163 161 160 160 162 167 171 177 184 177 180 194 209 205 211 207 222 234 239 249 246 257 257 257 261 269 290 294 297 291 303 303 294 277 289 286 288 296 287 287 289 285 279 269 266
204 207 206 208 203 202 204 196 197 198 201 199 198 190 188 182 179 181 176 179 180 172 175 172 172 174 178 178 176 177 179 174 173 173 175 174 172 166 164 160 160 160 162 163 166 166 172 178 178 175 184 198 209 207 204 213 222 221 233 235 241 246 252 258 260 263 278 282 292 290 292 294 279 274 278 289 301 302 301 294 289 284 282 268 263
207 205 207 207 205 204 203 198 202 202 202 200 197 192 188 182 179 180 177 177 175 178 173 176 176 176 175 176 176 177 177 179 178 175 173 168 164 162 158 158 158 160 161 165 164 169 174 177 178 182 192 202 209 210 210 215 216 221 226 235 239 241 248 254 259 266 268 274 283 297 294 292 306 269 292 308 308 308 301 291 285 280 283 284 268
204 205 206 207 209 207 203 204 204 203 201 199 194 189 187 183 180 182 178 175 174 174 179 176 180 175 174 171 177 176 176 177 177 174 169 166 164 161 158 156 156 153 159 161 164 170 173 178 184 192 199 205 207 208 208 210 209 216 221 231 236 239 246 250 253 259 259 268 275 273 289 290 285 302 312 291 288 290 298 303 300 277 273 278 292
204 205 204 206 209 208 207 208 204 202 199 195 191 189 183 182 185 179 173 176 178 177 177 179 176 173 172 173 175 173 173 175 175 172 169 167 165 161 159 155 155 153 155 164 171 178 184 189 195 203 206 209 206 207 204 208 208 218 226 228 231 239 247 253 256 257 261 262 264 283 277 286 298 279 290 302 293 284 278 285 295 302 303 285 271
206 204 204 207 209 208 206 203 198 193 190 189 186 184 185 183 178 175 178 179 179 180 176 173 169 172 171 172 170 173 176 179 176 172 168 170 165 161 159 158 154 155 159 170 179 182 189 198 203 207 209 212 217 217 214 211 206 218 227 226 236 243 248 251 251 257 262 267 274 279 283 287 289 296 297 292 295 291 298 289 285 287 297 297 296
205 205 206 211 210 203 198 193 191 189 187 188 188 184 180 178 178 178 181 180 177 175 175 175 175 173 170 170 171 175 181 179 182 179 174 166 163 158 155 157 157 158 162 169 182 189 194 197 204 210 216 221 227 231 232 235 238 241 232 235 241 243 251 262 264 264 266 266 262 272 275 274 279 280 284 286 291 292 294 293 292 296 299 295 288
206 206 213 214 207 196 191 194 189 191 191 186 183 179 179 177 178 179 178 178 177 175 173 174 176 175 173 171 174 179 181 182 183 181 176 169 160 160 159 160 158 160 166 172 178 186 191 198 202 215 224 231 236 240 245 246 251 255 257 258 258 253 248 255 259 259 267 270 275 272 272 280 281 288 289 296 295 295 296 297 291 295 295 297 298
206 211 215 207 198 194 195 192 191 193 183 186 181 181 173 173 178 179 177 177 178 172 176 179 175 173 172 174 178 179 179 182 183 181 178 173 168 162 159 160 163 166 170 175 178 181 189 194 202 195 205 208 211 233 245 249 253 256 258 261 262 263 263 262 266 265 262 273 279 274 281 282 287 289 291 296 295 295 291 290 289 285 290 287 284
209 215 213 201 201 194 190 188 190 185 188 182 177 173 175 177 178 178 183 180 167 177 183 174 177 174 173 175 180 180 180 184 184 182 180 176 170 164 165 159 159 166 173 178 180 183 187 191 198 196 193 222 232 225 215 233 249 256 261 263 267 268 269 271 272 274 282 279 277 278 274 287 289 286 282 289 292 285 292 288 284 284 275 278 277
206 211 205 202 197 193 189 186 188 188 181 176 173 178 179 184 183 180 173 171 179 179 177 179 175 177 179 179 179 180 180 187 186 184 180 176 171 164 161 160 164 171 174 180 183 186 193 191 192 195 200 210 219 218 221 223 227 238 248 249 249 261 269 272 274 276 277 277 279 277 277 273 270 281 283 281 282 284 285 286 285 279 276 271 275
208 207 200 197 186 188 188 188 189 183 179 176 177 182 184 182 179 180 179 180 179 181 179 178 180 177 178 177 178 182 186 190 187 184 180 175 172 161 162 164 166 172 177 182 187 190 192 195 198 197 202 209 209 219 218 226 233 238 242 250 260 262 266 267 266 264 258 259 262 266 273 272 272 275 279 279 272 268 268 273 278 281 285 286 282
217 204 200 195 194 193 187 188 185 179 176 178 181 184 184 184 182 178 176 179 179 170 176 176 175 177 176 173 174 183 187 194 187 184 181 180 173 161 165 166 167 172 178 181 187 191 191 192 192 198 202 208 229 241 245 246 244 251 259 258 259 261 260 264 270 273 272 272 273 275 280 282 285 285 287 287 289 294 295 297 296 295 296 293 287
214 204 206 201 199 193 189 185 183 179 178 179 185 186 184 185 181 172 173 178 176 180 178 177 172 169 171 175 178 182 187 196 188 184 181 179 175 149 162 166 170 167 178 184 188 186 185 189 191 189 207 211 234 243 250 259 262 256 259 263 261 261 259 262 278 283 283 283 283 284 285 286 287 289 292 296 297 300 303 296 286 292 287 284 282
225 214 217 208 199 193 188 183 184 181 180 187 188 187 182 178 178 173 177 174 179 178 165 162 167 174 178 181 182 179 187 194 188 185 181 182 170 159 165 166 165 168 159 169 171 183 200 202 203 211 220 229 236 247 254 259 257 261 265 263 261 263 276 284 285 279 285 286 283 282 283 289 296 298 297 296 294 294 285 281 287 294 284 284 285
305 280 283 244 204 190 187 186 187 184 188 191 184 182 181 180 169 165 173 168 168 157 162 165 169 176 183 183 185 184 183 191 187 184 183 183 172 157 162 161 165 167 169 171 178 184 200 217 222 221 225 234 244 251 257 260 263 257 264 277 282 277 280 292 289 285 275 265 277 298 299 295 295 294 289 291 291 290 282 278 281 274 276 279 274
309 300 239 188 187 186 191 192 192 189 189 180 180 181 169 161 166 168 166 164 160 161 164 169 172 179 175 179 189 176 178 188 187 184 184 184 173 161 158 166 173 172 170 176 180 187 196 212 223 223 231 245 252 256 259 265 264 272 284 273 267 277 295 283 269 270 288 311 302 295 291 291 289 282 277 281 282 278 280 276 275 273 274 281 287
207 214 201 188 187 190 186 191 188 186 179 177 168 165 169 168 161 166 163 160 156 160 167 169 170 174 178 175 157 160 187 179 187 184 184 184 177 168 168 173 169 168 167 171 181 186 203 191 165 226 238 241 249 255 262 267 276 285 283 275 277 283 286 276 290 323 316 303 295 290 285 283 279 275 275 275 278 278 275 275 271 272 274 277 280
165 175 186 189 198 193 191 185 178 167 157 154 162 166 160 156 163 161 162 162 166 167 167 168 170 170 157 157 168 170 188 187 180 185 183 184 181 173 168 173 167 159 170 174 188 195 192 190 186 213 230 243 248 254 266 279 286 287 287 285 289 292 295 310 332 317 304 292 288 284 283 283 281 278 274 275 275 274 280 280 279 279 279 278 280
191 187 182 177 178 185 187 179 167 155 158 161 163 165 158 158 161 163 164 164 168 169 171 170 169 165 136 175 175 175 185 187 185 182 183 182 183 174 171 171 179 171 179 184 194 186 183 182 162 217 237 242 249 265 280 287 293 289 288 292 295 301 309 349 321 305 288 284 283 283 283 279 282 286 282 280 284 289 288 286 285 284 280 277 274
237 215 209 198 186 180 174 169 158 155 157 158 164 161 165 165 165 172 169 168 171 173 177 174 174 164 167 169 176 176 183 176 186 182 183 183 186 178 176 179 184 171 180 183 182 173 161 156 191 226 235 247 264 279 284 289 291 292 297 299 305 315 337 317 299 286 283 284 280 279 281 280 282 281 286 293 293 291 289 285 281 276 277 279 277
245 238 221 205 198 196 178 175 168 164 166 164 167 170 169 169 172 178 174 179 179 180 180 177 182 174 161 176 172 172 176 174 179 182 183 183 184 183 179 177 184 180 168 162 157 148 168 203 221 231 240 275 287 296 312 304 298 297 302 309 316 343 316 294 289 287 285 284 285 285 283 287 290 294 295 295 292 288 282 277 270 268 267 270 268
235 234 226 207 201 185 181 186 182 178 174 179 179 176 173 176 179 177 182 188 187 186 182 182 182 178 184 166 172 170 173 165 172 173 182 182 183 184 182 181 182 178 148 151 153 176 211 222 212 218 356 325 338 317 267 273 298 307 312 317 324 303 283 283 284 286 284 287 289 291 292 295 295 295 293 288 286 286 286 286 290 281 274 274 277
238 237 227 218 202 189 189 187 184 186 186 185 185 179 179 179 179 181 186 186 189 190 186 184 185 185 176 170 150 160 163 170 171 171 169 172 169 178 177 180 176 173 149 152 162 142 130 106 80 298 350 288 290 296 308 317 323 315 302 293 280 274 272 260 267 278 287 291 292 290 292 293 291 291 289 291 286 283 284 283 283 286 288 287 282
236 235 224 211 205 201 205 194 188 190 192 187 184 186 188 186 187 190 187 189 186 190 186 186 188 186 165 132 137 136 162 176 179 171 167 162 162 157 150 144 145 121 127 126 117 116 96 70 59 45 29 4 333 336 310 294 284 283 286 278 275 271 277 288 293 287 280 279 283 289 291 294 293 292 291 289 288 286 281 281 285 290 291 291 288
241 242 231 207 211 202 204 199 201 199 199 202 205 198 189 189 195 199 203 194 193 188 187 193 190 183 172 170 166 165 150 179 184 169 167 168 161 152 141 143 126 128 142 128 102 80 82 77 72 49 13 285 301 304 294 293 278 265 270 274 268 272 281 279 274 279 283 291 292 295 296 297 292 290 289 288 287 286 287 285 283 283 288 279 277
247 244 229 217 214 198 202 203 202 203 199 201 202 210 218 213 210 201 191 193 204 211 202 193 184 173 173 180 175 173 180 176 169 171 168 165 164 157 154 155 154 148 181 159 133 114 109 128 134 166 241 245 289 290 292 290 297 299 281 288 292 292 284 279 280 283 291 290 291 295 294 295 293 294 293 291 290 288 285 291 294 296 296 294 289
252 247 234 224 216 204 205 203 198 200 199 196 196 196 189 201 207 201 188 187 189 191 187 181 178 180 173 160 160 152 151 158 164 164 164 163 163 164 163 166 162 173 157 122 95 130 139 143 189 216 235 229 245 255 274 282 284 284 290 295 287 288 289 285 285 288 290 293 291 289 288 289 290 294 294 296 293 292 293 286 288 295 293 293 292
254 247 234 229 219 210 207 205 199 196 196 189 190 187 188 182 194 205 199 191 188 186 182 176 176 173 170 160 149 145 156 160 160 162 163 165 166 166 166 165 166 161 154 139 116 131 132 156 184 217 214 225 247 251 257 263 267 269 279 291 292 285 288 285 290 293 293 293 291 289 286 284 286 287 290 291 290 292 289 298 297 296 292 284 284
253 253 241 221 213 202 200 199 197 195 193 188 189 186 188 185 181 174 185 190 186 185 182 180 176 172 161 161 160 156 158 161 164 165 167 168 164 163 163 162 161 150 133 115 144 147 163 174 198 210 212 223 234 241 251 251 258 266 265 272 283 288 287 289 298 292 286 285 286 286 285 284 286 289 287 289 290 293 297 299 299 295 292 294 289
251 251 245 222 207 200 199 198 194 198 197 194 193 189 192 186 179 170 163 169 178 184 181 175 171 164 161 160 159 159 158 159 161 163 163 160 158 157 156 151 143 140 138 146 142 158 161 183 205 212 220 233 243 252 261 259 263 267 276 273 273 282 286 292 294 291 290 286 283 278 282 283 285 288 292 291 287 285 288 297 299 302 299 294 292
255 251 246 234 215 210 200 195 196 194 192 191 191 190 190 186 178 176 173 173 171 167 164 165 164 160 159 159 159 160 161 163 162 161 160 159 157 156 141 125 116 88 86 105 137 148 167 184 196 212 207 232 240 242 256 265 264 268 270 279 283 285 289 294 288 290 286 285 281 282 285 286 288 288 289 292 296 300 299 301 299 298 297 298 296
253 249 245 229 218 213 199 195 192 191 192 192 188 186 183 178 180 180 175 172 164 156 152 154 155 160 157 157 159 160 161 159 158 156 158 158 159 138 126 145 133 142 137 148 151 167 169 184 188 209 209 232 244 250 246 259 263 265 269 270 284 289 292 289 288 285 281 280 286 289 290 287 285 288 287 284 285 290 299 301 300 298 294 290 292
251 247 241 224 214 207 199 192 190 188 183 177 177 179 181 179 177 175 171 168 161 158 151 147 145 151 153 159 161 159 157 155 155 156 156 161 149 134 142 147 156 146 154 158 162 165 178 205 194 200 217 227 241 247 253 258 263 270 280 284 279 285 280 277 277 279 290 293 287 285 284 286 288 289 291 292 294 295 299 300 298 297 298 297 301
256 246 240 221 205 199 188 187 184 173 173 174 177 176 176 175 176 174 169 165 162 157 156 158 159 156 155 159 158 153 154 152 150 149 150 131 101 119 134 143 148 157 158 160 161 168 186 195 190 199 225 221 243 252 254 264 267 274 281 281 285 272 288 291 293 289 282 282 286 287 290 288 291 293 292 291 296 302 302 301 300 301 300 294 293
253 249 242 222 197 190 186 177 172 173 176 175 176 174 174 172 171 171 167 163 160 160 159 159 161 156 154 151 146 150 145 138 134 130 120 114 116 119 136 140 142 142 149 152 164 171 184 194 207 202 219 228 242 251 255 269 274 279 277 283 282 290 291 288 284 286 288 285 289 289 290 291 292 293 291 293 297 304 302 303 303 301 300 301 300
253 242 234 216 190 187 176 178 174 174 176 172 176 174 172 172 173 169 163 161 162 160 159 158 157 155 154 148 149 147 142 145 140 137 134 139 139 140 134 147 151 156 156 165 169 181 182 204 197 207 226 231 238 249 252 260 269 272 279 276 284 287 287 284 286 288 290 289 289 290 290 291 295 294 290 294 299 303 307 306 303 299 299 295 297
268 244 218 203 188 180 173 175 179 176 176 174 174 170 174 169 164 159 159 159 157 155 152 153 151 156 159 157 154 148 143 143 143 139 145 135 134 137 145 146 151 148 152 162 177 180 188 188 203 208 233 238 243 249 257 260 264 271 273 281 282 281 283 283 282 283 285 290 289 291 291 295 297 296 298 304 311 310 303 300 299 297 299 297 296
257 244 209 197 183 173 173 178 177 171 169 169 170 169 165 160 157 156 155 153 151 152 152 150 150 146 155 150 145 137 125 126 128 133 130 138 143 147 147 143 143 151 155 172 179 181 181 191 206 212 233 248 247 256 258 262 260 270 280 284 282 281 281 282 284 284 288 288 291 290 294 300 298 295 303 309 307 304 304 302 303 301 301 302 300
251 224 203 185 181 174 175 174 168 168 168 168 167 162 156 154 155 155 155 158 158 155 148 144 145 155 150 147 135 127 113 129 127 134 137 139 141 141 150 154 156 159 167 178 178 169 171 186 225 227 235 244 242 248 253 260 263 276 278 277 279 280 282 284 288 288 288 289 289 290 289 289 293 302 311 309 308 307 303 303 302 302 299 298 303
228 196 182 175 169 160 161 158 162 163 164 155 148 149 150 152 152 154 155 152 152 149 147 148 152 151 149 138 122 117 128 133 139 138 141 139 142 146 146 115 129 131 174 179 173 165 167 193 229 252 246 251 251 250 252 253 253 255 266 271 275 279 283 286 287 291 291 292 287 286 288 288 296 311 309 309 309 309 308 307 308 308 307 307 307
171 164 152 147 146 145 146 144 144 143 137 138 141 143 147 150 152 151 148 147 141 140 143 146 149 144 125 120 126 131 132 136 134 135 138 143 144 145 133 131 149 173 158 171 163 161 170 204 226 250 269 263 256 254 259 257 249 245 247 258 265 274 278 281 282 286 289 286 286 290 291 296 312 312 310 309 310 308 308 308 309 308 307 308 310
143 140 139 135 135 137 140 140 140 141 146 147 144 145 143 143 140 139 138 135 137 139 141 144 139 119 117 119 120 128 132 130 134 130 126 123 136 135 113 141 148 153 159 172 166 180 197 204 219 238 254 271 274 271 267 265 261 255 252 247 255 262 268 276 279 280 280 285 283 283 291 308 312 309 308 310 309 308 306 306 307 307 307 308 307
120 122 125 129 132 130 128 131 136 138 136 136 135 136 136 135 133 130 130 133 136 136 139 139 132 128 125 129 133 132 131 130 132 136 142 143 137 129 125 129 128 152 186 196 197 206 217 229 232 241 258 268 276 276 277 271 273 271 267 262 259 267 268 272 277 279 280 279 281 288 303 315 311 311 309 310 310 309 310 308 311 310 309 309 310
102 104 109 115 118 121 125 128 126 126 126 128 127 128 126 123 125 127 128 131 133 135 134 127 126 127 126 122 114 124 122 125 123 127 120 137 144 139 134 137 155 174 180 205 216 217 224 240 248 255 266 272 274 277 278 282 283 279 277 272 269 266 272 274 281 280 277 286 291 295 312 312 309 309 310 311 312 313 313 314 314 312 312 312 315
83 93 100 104 111 119 126 130 131 132 129 125 121 121 123 125 127 129 134 134 132 133 133 130 129 122 119 119 112 113 115 123 130 134 136 131 137 144 141 153 162 171 175 232 246 251 253 263 263 264 258 268 268 272 278 281 282 281 281 280 280 280 283 286 285 280 287 288 293 309 312 309 308 308 309 312 312 314 313 313 314 314 315 316 317
76 80 91 94 98 97 96 102 108 112 114 121 123 123 124 125 124 121 87 118 113 109 108 98 102 103 115 116 121 122 130 138 141 144 143 136 135 139 146 155 163 175 177 236 279 288 279 268 261 261 262 262 265 263 267 273 276 277 279 278 280 282 284 289 296 298 298 304 311 320 314 310 307 308 310 314 314 315 317 318 318 318 317 318 320
79 80 81 84 90 97 103 106 109 113 121 124 125 127 127 111 101 116 116 115 117 111 111 116 119 116 115 107 127 132 138 137 134 131 143 147 147 148 160 155 155 129 344 300 297 287 277 272 273 268 270 267 266 266 269 270 273 271 272 275 281 289 298 305 304 307 306 313 324 321 314 311 309 311 315 318 318 319 317 317 319 319 320 320 321